Location: *
(44.3925°N, 5.4708°E)
Time: 19:21:39
(UTC+00:00)

CZ-2C R/B - Pass Details

Date: 18 September 2019
Orbit: 639 x 705 km, 98.4° (Epoch: 15 October)

Event Time Altitude Azimuth Distance (km) Brightness Sun altitude
Rises 18:22:32 0° 24° (NNE) 2,976 6.9 -7.7°
Reaches altitude 10° 18:25:01 10° 35° (NE) 2,053 6.0 -8.1°
Maximum altitude 18:28:54 29° 96° (E) 1,182 4.4 -8.8°
Drops below altitude 10° 18:32:44 10° 157° (SSE) 2,026 5.9 -9.5°
Sets 18:35:10 0° 168° (SSE) 2,929 6.8 -9.9°
